Starlink 30532

operational
NORAD ID: 58070 Int'l Des: 2023-158 Owner: SPXS Country: US Constellation: starlink
LEOCIRCULAR

About Starlink 30532

Description loading...

Live Position

Loading 3D Globe...

Upcoming Passes

Altitude History

Altitude vs Time

uPlot chart will show altitude changes over time

Two-Line Element Set

1 58070U 23158V 25350.71965888 .00000497 00000-0 51884-4 0 9996
2 58070 43.0026 120.8940 0001560 259.0719 100.9948 15.02542406121055
Epoch: Dec 16, 2025 • Age: 18 hours

Current Status

Altitude 558.5 km
Velocity 7.59 km/s
Sub-Earth Point 15.62°N, 20.31°E
Launch Date Oct 13, 2023
Age 2.1 years
Type internet

Technical Details

Classification Payload
Mass 730.00 kg
Dry Mass 700.00 kg
Total Mass 730.00 kg
Length 0.30 m
Diameter 4.10 m
Span 29.00 m
Shape Box + pan
Manufacturer SPXS
Bus Type Starlink V2M
Phase Status In Orbit
Owner/State SPXS/US

Large Constellations

Loading constellations...